COMPASS
1 32787U 08021E 12253.20917407 .00003448 00000-0 41640-3 0 4049
2 32787 097.7919 312.6640 0015960 141.7251 218.5107 14.84310326236271
AAUSAT2
1 32788U 08021F 12252.14896534 .00003685 00000-0 44104-3 0 03971
2 32788 097.7937 312.0577 0015256 143.2476 216.9808 14.84650420236147
DO-64
1 32789U 08021G 12252.17508551 .00005694 00000-0 65051-3 0 04139
2 32789 097.8053 314.4336 0015343 141.4796 218.7477 14.86348999236205
CO-66
1 32791U 08021J 12252.15420178 .00002810 00000-0 34579-3 0 03933
2 32791 097.7902 311.3047 0016608 145.6797 214.5489 14.83666698236042
RS-30
1 32953U 08025A 12253.39994680 .00000010 00000-0 00000 0 0 1271
2 32953 082.4973 242.7645 0019939 121.2721 239.0315 12.43027440195021
PHARMSAT
1 35002U 09028B 12226.86484473 .07728342 73476-5 57159-3 0 789
2 35002 040.4341 050.6671 0012079 300.9773 059.0492 16.39309245183554
METEOR-M
1 35865U 09049A 12253.24122791 .00000016 00000-0 27030-4 0 7621
2 35865 098.6459 305.9539 0002509 149.6211 210.5112 14.21868884154545
RS-38
1 35869U 09049E 12253.53120399 .00000078 00000-0 54603-4 0 7522
2 35869 098.6410 306.2192 0004563 157.9754 202.1621 14.22086176154607
JUGNU
1 37839U 11058B 12253.26230616 .00000620 00000-0 19019-3 0 2235
2 37839 019.9598 208.8995 0019382 069.5534 290.6953 14.12078899 47148
SRMSAT
1 37841U 11058D 12253.28976920 .00000264 00000-0 00000 0 0 2246
2 37841 019.9693 215.2568 0011436 032.6275 327.4850 14.10158961 47074
RAX-2
1 37853U 11061D 12252.93187707 .00010106 00000-0 79006-3 0 02917
2 37853 101.7041 331.2613 0244963 112.1407 250.5963 14.80693775046791
AUBIESAT
1 37854U 11061E 12252.93112172 .00010697 00000-0 81933-3 0 02885
2 37854 101.7100 331.6248 0246459 111.3745 251.3906 14.81145951046788
HRBE
1 37855U 11061F 12252.88620683 .00010268 00000-0 79303-3 0 2760
2 37855 101.7069 331.4841 0245935 111.5928 251.1644 14.80960681 46773
RS-39
1 38051U 11062C 12252.22436520 .00013620 00000-0 53981-3 0 06823
2 38051 051.6344 123.7797 0012193 339.6812 120.6919 15.25614967034647
E-STAR
1 38079U 12006C 12252.09384964 .00051276 00000-0 12575-2 0 04898
2 38079 069.4833 125.5091 0719411 143.0269 222.2707 14.20028568029338
GOLIAT
1 38085U 12006J 12253.06169139 .00049059 00000-0 11911-2 0 4617
2 38085 069.4813 123.8478 0725133 142.1967 223.2449 14.19022318 29458
HORYU-2
1 38340U 12025D 12253.36361911 .00001882 00000-0 32078-3 0 1366
2 38340 098.1803 193.3078 0014041 065.0160 295.2476 14.70155981 16843
RS-40
1 38736U 12041D 12252.07391090 .00000010 00000-0 00000-0 0 00471
2 38736 082.4822 331.0246 0018049 220.3799 139.5943 12.42646228005206
